This is the latest recevied weather packets stored in our database for station/object KC5DAQ-22. If no packets are shown the sender has not sent any weather packets the latest 10 day(s).
| Time | Temp. | Humidity | Pressure | Rain* | Wind** | Luminosity | Snow |
|---|---|---|---|---|---|---|---|
| 1777658339 | 16.67° C | 96% | 1008.2 hPa | 0 mm | - | 16 W/m² | - |
| 1777658279 | 16.67° C | 96% | 1008.3 hPa | 0 mm | - | 16 W/m² | - |
| 1777658220 | 16.67° C | 96% | 1008.2 hPa | 0 mm | - | 16 W/m² | - |
| 1777658161 | 16.67° C | 96% | 1008.4 hPa | 0 mm | - | 14 W/m² | - |
| 1777658098 | - | - | 1008.4 hPa | - | - | - | - |
| 1777658039 | - | - | 1008.5 hPa | - | - | - | - |
| 1777657980 | - | - | 1008.5 hPa | - | - | - | - |
| 1777657711 | 16.67° C | 96% | 1008.5 hPa | 1.78 mm | - | 16 W/m² | - |
| 1777657654 | 16.67° C | 96% | 1008.5 hPa | 2.03 mm | - | 16 W/m² | - |
| 1777657592 | 16.67° C | 96% | 1008.5 hPa | 1.78 mm | - | 16 W/m² | - |
| 1777657532 | 16.67° C | 96% | 1008.6 hPa | 1.78 mm | - | 18 W/m² | - |
| 1777657473 | 16.67° C | 96% | 1008.6 hPa | 1.78 mm | - | 18 W/m² | - |
| 1777657412 | 16.67° C | 96% | 1008.6 hPa | 1.52 mm | - | 23 W/m² | - |
| 1777657351 | 16.67° C | 96% | 1008.6 hPa | 1.52 mm | - | 25 W/m² | - |
| 1777657291 | 16.67° C | 96% | 1008.6 hPa | 1.52 mm | - | 25 W/m² | - |
| 1777657231 | 16.67° C | 96% | 1008.6 hPa | 1.52 mm | - | 28 W/m² | - |
| 1777657171 | 16.67° C | 96% | 1008.7 hPa | 1.52 mm | - | 30 W/m² | - |
| 1777657113 | 16.67° C | 96% | 1008.6 hPa | 1.27 mm | - | 33 W/m² | - |
| 1777657053 | 16.67° C | 96% | 1008.6 hPa | 1.27 mm | - | 37 W/m² | - |
| 1777656992 | 16.67° C | 96% | 1008.5 hPa | 1.27 mm | - | 37 W/m² | - |
| 1777656925 | 16.67° C | 96% | 1008.5 hPa | 1.27 mm | - | 41 W/m² | - |
| 1777656860 | 16.67° C | 96% | 1008.5 hPa | 1.27 mm | - | 46 W/m² | - |
| 1777656795 | 16.67° C | 96% | 1008.4 hPa | 1.27 mm | - | 49 W/m² | - |
| 1777656734 | 16.67° C | 96% | 1008.5 hPa | 1.52 mm | - | 55 W/m² | - |
| 1777656673 | 16.67° C | 96% | 1008.6 hPa | 1.78 mm | - | 60 W/m² | - |
* Rain latest hour (hover to see other rain measurements)
** Current wind speed in m/s (hover to see current wind gust speed)